Regional Weather Roundup
Issued by NWS

Home | Current Version | Previous Version | Graphics & Text | Print | Product List | Glossary Off
Versions: 1 2 3 4 5 6 7 8 9 10 11 12 13 14 15 16 17 18 19 20 21 22 23 24 25 26 27 28 29 30 31 32 33 34 35 36 37 38 39 40 41 42 43 44 45 46 47 48 49 50

000
ASUS45 KBOI 190210
RWRID
WEATHER ROUNDUP FOR IDAHO
NATIONAL WEATHER SERVICE BOISE ID
800 PM MDT SAT APR 18 2015

NOTE: "FAIR" INDICATES FEW OR NO CLOUDS BELOW 12000 FEET
WITH NO SIGNIFICANT WEATHER AND/OR OBSTRUCTIONS TO VISIBILITY

IDZ012-014-190300-
SOUTHWEST IDAHO


CITY           SKY/WX    TMP DP  RH WIND       PRES   REMARKS
BOISE          CLEAR     68  16  13 NW22G29   30.02S
CALDWELL       CLEAR     66  23  19 N16G23    30.05S
MOUNTAIN HOME  CLEAR     66  26  21 NW18      30.00F
$$

IDZ016-017-190300-
SOUTHCENTRAL IDAHO


CITY           SKY/WX    TMP DP  RH WIND       PRES   REMARKS
BURLEY         CLEAR     61  27  27 W14G22    29.99S
JEROME         CLEAR     61  25  25 SW22G30   30.00F
TWIN FALLS     CLEAR     61  26  26 W20G26    30.02S
$$

IDZ019>023-190300-
SOUTHEAST IDAHO


CITY           SKY/WX    TMP DP  RH WIND       PRES   REMARKS
IDAHO FALLS    CLEAR     61  22  22 N14       30.00S
POCATELLO      CLEAR     64  26  23 N5        29.99R
REXBURG        CLEAR     59  25  27 NE10      30.01R
$$

IDZ006-010-011-018-031-032-190300-
CENTRAL IDAHO MOUNTAINS


CITY           SKY/WX    TMP DP  RH WIND       PRES   REMARKS
MCCALL         CLEAR     54  15  21 N10       30.15S
HAILEY         CLEAR     61  28  29 N10       30.02S
STANLEY          N/A     53  16  23 NW6       30.13S
SALMON         CLEAR     57  16  19 N7        30.06R
CHALLIS        CLEAR     58  14  17 NW13      30.07R
$$

IDZ002-004-006-007-026-190300-
NORTHERN IDAHO


CITY           SKY/WX    TMP DP  RH WIND       PRES   REMARKS
LEWISTON       LGT RAIN  66  22  18 NW10      30.15F
LOWELL           N/A     55  41  59 CALM      30.14F
COEUR D`ALENE  CLEAR     63  21  20 W13       30.15F
MULLAN PASS    CLEAR     44  16  32 MISG      30.19F
$$


USA.gov is the U.S. government's official web portal to all federal, state and local government web resources and services.